Weather Roundup
Issued by NWS

Home | Current Version | Previous Version | Graphics & Text | Print | Product List | Glossary Off
Versions: 1 2 3 4 5 6 7 8 9 10 11 12 13 14 15 16 17 18 19 20 21 22 23 24 25 26 27 28 29 30 31 32 33 34 35 36 37 38 39 40 41 42 43 44 45 46 47 48 49 50

478
NZUS93 KARX 060010
HRRWXR

CURRENT HOURLY OBSERVATIONS ACROSS
MUCH OF THE UPPER MISSISSIPPI VALLEY
NATIONAL WEATHER SERVICE LA CROSSE WI
700 PM CDT THU MAY 05 2016


...SOUTHEAST MINNESOTA...


CITY           SKY/WX    TMP DP  RH WIND       PRES   REMARKS
ROCHESTER      SUNNY     71  37  28 SW10      29.94F
ROCHESTER/MAYO FAIR      73  35  25 SW5       29.94F
WINONA         MOSUNNY   72  37  28 CALM      29.93F
AUSTIN         SUNNY     73  36  25 W7        29.94F
ALBERT LEA     SUNNY     75  34  22 W7        29.95S
DODGE CENTER   SUNNY     73  36  25 W9        29.94F
PRESTON        SUNNY     68  38  33 W9        29.96F
OWATONNA       SUNNY     75  32  20 SW10      29.93F
FARIBAULT      SUNNY     75  37  25 SW6       29.93F
$$

...ELSEWHERE IN MINNESOTA...


CITY           SKY/WX    TMP DP  RH WIND       PRES   REMARKS
MINNEAPOLIS    SUNNY     78  35  21 SW7       29.89F
INTNL FALLS    CLOUDY    86  45  23 SW6       29.68F
DULUTH         SUNNY     77  40  26 W17       29.80F
RED WING       SUNNY     73  37  27 CALM      29.89F
REDWOOD FALLS  SUNNY     80  41  24 SW9       29.89F
MANKATO        SUNNY     79  37  22 SW12      29.92F
WORTHINGTON    SUNNY     77  40  26 SW12      29.96F
FAIRMONT       SUNNY     75  36  23 SW9       29.94F
$$

...SOUTHWEST WISCONSIN...


CITY           SKY/WX    TMP DP  RH WIND       PRES   REMARKS
LA CROSSE      CLOUDY    70  36  28 CALM      29.94F
PRAIRIE DU CHI SUNNY     68  32  26 W7        29.96F
BOSCOBEL       CLOUDY    69  32  25 NW3       29.96F
LONE ROCK      SUNNY     65  33  30 NW5       29.96F
PLATTEVILLE    SUNNY     64  35  33 W5        29.98S
FORT MC COY    CLOUDY    66  37  34 W5        29.96S
CAMP DOUGLAS   PTSUNNY   64  39  39 W9        29.94F
MAUSTON-NEW LI CLEAR     66  36  32 W7        29.94F
VIROQUA        FAIR      65  35  32 W5        29.97F
WIS DELLS      SUNNY     65  28  25 W6        29.95F
$$

...ELSEWHERE IN WISCONSIN...


CITY           SKY/WX    TMP DP  RH WIND       PRES   REMARKS
MILWAUKEE      MOCLDY    51  37  58 E3        29.98S
MADISON        PTSUNNY   65  32  29 W7        29.96S
GREEN BAY      CLEAR     64  41  42 S7        29.92F
EAU CLAIRE     MOSUNNY   69  38  32 S5        29.93F
BLACK RVR FLS  FAIR      68  34  28 W5        29.94S
MEDFORD        MOSUNNY   62  39  42 W8        29.93F
WAUSAU         SUNNY     66  37  34 W12       29.92S
WIS RAPIDS     SUNNY     67  30  25 W6        29.95S
MARSHFIELD     MOSUNNY   65  37  35 W5        29.94S
RICE LAKE      SUNNY     70  36  28 SW7       29.92S
$$

...NORTHEAST IOWA...


CITY           SKY/WX    TMP DP  RH WIND       PRES   REMARKS
WATERLOO       SUNNY     69  33  26 CALM      29.97F
DUBUQUE        SUNNY     64  40  41 N3        29.99F
DECORAH        SUNNY     68  36  30 NW6       29.96F
MASON CITY     SUNNY     72  42  34 W10       29.97F
CHARLES CITY   SUNNY     72  32  23 S8        29.97F
OELWEIN        SUNNY     68  36  30 W6        29.99S
$$

...ELSEWHERE IN IOWA...


CITY           SKY/WX    TMP DP  RH WIND       PRES   REMARKS
DES MOINES     MOSUNNY   71  33  24 CALM      30.00F
IOWA CITY      SUNNY     67  33  28 NW6       30.00F
FORT DODGE     SUNNY     72  43  35 W6        29.99S
MARSHALLTOWN   SUNNY     69  38  32 SW5       29.98F
CEDAR RAPIDS   SUNNY     66  36  32 NW7       29.98F
$$

...NORTHERN ILLINOIS...


CITY           SKY/WX    TMP DP  RH WIND       PRES   REMARKS
CHICAGO-OHARE  PTCLDY    57  38  48 E6        29.96F
CHICAGO-MIDWAY PTCLDY    56  37  49 E7        29.97F
MOLINE         SUNNY     66  35  31 NW5       29.98F
ROCKFORD       PTCLDY    64  37  36 NW7       29.99S
PEORIA         PTCLDY    66  40  38 VRB6      29.99S
$$

NOTE: "FAIR" INDICATES FEW OR NO CLOUDS BELOW 12,000 FEET WITH NO
SIGNIFICANT WEATHER AND/OR OBSTRUCTIONS TO VISIBILITY. WIND
SPEEDS ARE IN MILES-PER-HOUR.




USA.gov is the U.S. government's official web portal to all federal, state and local government web resources and services.